Regional Weather Roundup
Issued by NWS Midland/Odessa, TX

Skip options and go directly to product.
Home | Oldest Version | Next Version | Current Version | All | Text Only | Save Text | Print | Product List | Glossary On

Skip product version selection by date and time.   
505
ASUS44 KMAF 281101
RWRMAF
MIDLAND AREA WEATHER ROUNDUP
NATIONAL WEATHER SERVICE MIDLAND TX
600 AM CDT THU MAY 28 2015

...IN SOUTHWEST TEXAS AND SOUTHEAST NEW MEXICO...

CITY           SKY/WX    TMP DP  RH WIND       PRES   REMARKS
ALPINE         CLEAR     64  60  87 SW5       30.11R
ANDREWS        CLOUDY    65  65 100 NE3       30.03R
ARTESIA        CLEAR     64  63  94 SE9       29.99F
BIG SPRING     CLOUDY    74  67  77 E10       30.04R
CARLSBAD       CLEAR     65  60  84 SE8       29.98R
DRYDEN           N/A     74  70  87 VRB6      29.95S
FORT STOCKTON  CLEAR     70  66  87 SE12      29.98R
GUAD PASS      CLEAR     65  53  65 SW8       30.10F
HOBBS          CLOUDY    64  64 100 E5        30.05S FOG
MARFA          CLEAR     57  55  94 CALM      30.10S
MIDLAND AIRPK  MOCLDY    72  67  83 SE7       30.01R
MIDLAND INTL   CLOUDY    71  67  87 SE15      30.01R
ODESSA         MOCLDY    71  65  81 SE8       30.02R
PECOS          CLEAR     69  65  85 E12       29.96R
PRESIDIO       FAIR      75  62  63 NE10      29.93S
SEMINOLE       CLOUDY    67  62  85 E3        30.04S
SNYDER         CLOUDY    70  67  92 SE6       30.04S
WINK           CLOUDY    71  65  81 SE10      29.97R
$$
...OTHER STATIONS IN TEXAS...

CITY           SKY/WX    TMP DP  RH WIND       PRES   REMARKS
ABILENE        PTCLDY    72  68  87 S8        30.03R
AMARILLO       PTCLDY    59  53  80 SE15      30.06R
AUSTIN         CLOUDY    73  72  96 VRB3      30.03R
BROWNSVILLE    CLOUDY    80  77  90 SE12      29.96S
CORPUS CHRISTI MOCLDY    79  76  90 SE9       29.97S
DALLAS FTW     CLOUDY    72  70  93 S9        30.03S
DEL RIO        CLOUDY    76  71  85 SE10      29.99R
EL PASO        PTCLDY    71  51  49 S10       29.99S
HOUSTON INT    PTCLDY    70  70 100 NE3       30.06R
LUBBOCK        CLOUDY    68  65  90 SE13      30.06S
SAN ANGELO     MOCLDY    71  68  90 SE5       29.99R
SAN ANTONIO    CLOUDY    76  73  91 SE9       30.02S
WACO           CLOUDY    72  70  93 SE7       30.05F
WICHITA FALLS  NOT AVBL
$$
...OTHER LOCATIONS IN NEW MEXICO...

CITY           SKY/WX    TMP DP  RH WIND       PRES   REMARKS
ALAMAGORDO     PTCLDY    63  48  59 S6        30.00F
ALBUQUERQUE    MOCLDY    54  34  46 SE6       30.10R
CANNON AFB     CLEAR     58  57  96 SE9       30.07F
CLOVIS         CLOUDY    61  57  88 SE14        N/A
HOLLOMAN AFB   PTCLDY    67  52  58 S2        29.99R
ROSWELL        PTCLDY    63  58  83 SW7       29.99S
RUIDOSO        PTCLDY    50  37  62 CALM      30.20S
SANTA FE       CLOUDY    51  34  52 N8        30.13S
TRUTH OR CONSE PTCLDY    61  15  16 N3        30.06R
TUCUMCARI      CLEAR     60  56  86 E5        30.04R
$$

USA.gov is the U.S. government's official web portal to all federal, state and local government web resources and services.